Regional Weather Roundup
Issued by NWS

Home | Current Version | Previous Version | Text Only | Print | Product List | Glossary Off
Versions: 1 2 3 4 5 6 7 8 9 10 11 12 13 14 15 16 17 18 19 20 21 22 23 24 25 26 27 28

000
ASUS45 KGTF 040710
RWRMT
MONTANA HOURLY WEATHER ROUNDUP
NATIONAL WEATHER SERVICE GREAT FALLS MT
100 AM MDT MON MAY 04 2015

NOTE: "FAIR" INDICATES FEW OR NO CLOUDS BELOW 12000 FEET WITH NO
SIGNIFICANT WEATHER AND/OR OBSTRUCTIONS TO VISIBILITY.

MTZ001>007-043-040800-
WEST OF THE DIVIDE

CITY           SKY/WX    TMP DP  RH WIND       PRES   REMARKS
KALISPELL      SUNNY     35  27  72 CALM      29.92R
MISSOULA       CLEAR     43  24  47 N3        29.93R
BUTTE          CLEAR     41  26  55 CALM      29.98S
DEER LODGE       N/A     41  23  48 CALM      29.99S
EUREKA           N/A     37  25  60 CALM      29.95R
HAMILTON         N/A     43  27  52 S5        29.92S
LIBBY            N/A     37  28  70 CALM      29.94R
$$

MTZ008-052>055-040800-
SOUTHWEST MONTANA

CITY           SKY/WX    TMP DP  RH WIND       PRES   REMARKS
BOZEMAN        CLEAR     43  32  65 W6        29.96S
DILLON         CLEAR     46  29  51 CALM      29.95S
$$

MTZ009-010-012-014-046-048-049-054-040800-
EAST SLOPES AND CENTRAL MONTANA

CITY           SKY/WX    TMP DP  RH WIND       PRES   REMARKS
CUT BANK       CLEAR     44  26  49 SE8       29.98S
GREAT FALLS    CLEAR     45  32  60 E5        29.95S
MALMSTROM AFB  CLEAR     46  33  62 E3        29.96S
HELENA         CLEAR     49  26  41 W7        29.95R
$$

MTZ011-013-016-021-045-047-050-051-040800-
NORTH CENTRAL MONTANA

CITY           SKY/WX    TMP DP  RH WIND       PRES   REMARKS
HAVRE          CLEAR     47  29  49 E13       30.00F
LEWISTOWN      CLEAR     49  32  52 E8        30.01S
CHINOOK          N/A     43  28  56 E6        30.04S
FORT BENTON      N/A     52  28  40 E16G24    29.96S
$$

MTZ017>020-022>042-056>058-061-062-040800-
EASTERN PLAINS

CITY           SKY/WX    TMP DP  RH WIND       PRES   REMARKS
BAKER          PTCLDY    38  30  73 E3        30.11S
BILLINGS       CLOUDY    51  35  54 NE6       30.00F
GLASGOW        CLEAR     42  25  50 E13       30.08R
JORDAN           N/A     41  27  57 E3        30.06S
LIVINGSTON     PTCLDY    46  35  65 E10       30.01R
MILES CITY     MOCLDY    49  29  46 NE9       30.06S
SIDNEY         PTCLDY    37  25  60 CALM      30.13S
WOLF POINT     CLEAR     37  25  61 NE7       30.11S WCI  32
BIG TIMBER       N/A     46  34  61 N6        30.03S
FORSYTH          N/A     48  30  49 CALM      30.04S
PLENTYWOOD       N/A     39  21  48 CALM      30.12S
POPLAR           N/A     43  25  49 CALM      30.12S
$$

REGIONAL REPORTS...DAKOTAS

CITY           SKY/WX    TMP DP  RH WIND       PRES   REMARKS
WILLISTON      CLEAR     35  23  61 N5        30.13R
MINOT          CLEAR     39  25  57 SW7       30.12R
DICKINSON      PTCLDY    38  26  62 S5        30.11R
BEACH          FAIR      36  32  87 SE5       30.13R
CROSBY         FAIR      34  32  93 S7        30.13S WCI  28
WATFORD CITY   FAIR      36  25  64 CALM      30.12S
BISMARCK       PTCLDY    43  27  53 NE9       30.12S
GRAND FORKS    CLEAR     39  29  67 NW7       30.08R
FARGO          CLEAR     43  26  51 NW9       30.07R
BUFFALO SD       N/A     45  34  65 NE9       30.04S
RAPID CITY     CLOUDY    47  34  60 CALM      30.10S
$$

REGIONAL REPORTS...WYOMING/IDAHO/WASHINGTON

CITY           SKY/WX    TMP DP  RH WIND       PRES   REMARKS
GILLETTE       LGT RAIN  48  46  93 SE7       30.07F
SHERIDAN       PTCLDY    47  41  80 S9        30.01S
BUFFALO WY     CLOUDY    50  44  80 S12       30.07F
CODY           CLOUDY    48  41  76 SW6       30.03R
YELLOWSTONE LA   N/A     30  28  92 CALM      30.12S
IDAHO FALLS    PTCLDY    45  41  86 NW3       29.96R
SALMON         CLEAR     45  32  61 SE5       29.91R
BOISE          CLEAR     57  30  35 SE7       29.83R
SPOKANE        CLEAR     49  29  46 CALM      29.88S
$$

REGIONAL REPORTS...ALBERTA

CITY           SKY/WX    TMP DP  RH WIND       PRES   REMARKS
EDMONTON       CLEAR     34  32  93 E6        30.02S WCI  29
CALGARY        CLEAR     39  27  60 S9        29.99S
LETHBRIDGE     CLEAR     37  27  65 E6        29.98S HAZE
MEDICINE HAT   CLEAR     39  28  65 NE8       30.03S
$$

REGIONAL REPORTS...SASKATCHEWAN

CITY           SKY/WX    TMP DP  RH WIND       PRES   REMARKS
SWIFT CURRENT  CLEAR     36  28  75 SE8       30.09S WCI  29
REGINA         PTCLDY    37  32  81 VRB2      30.12R
SASKATOON      CLEAR     36  30  80 W3        30.10S
$$



USA.gov is the U.S. government's official web portal to all federal, state and local government web resources and services.